"2010-06-30 00:00:00",245260,8.32,168,4.338,0.698,23.5,110.8408,27.06,27.97,21.41,0,111.3,13.09,27.90,130.0
"2010-06-30 00:00:30",245261,7.673,168.7,4.49,0.549,23.49,110.8402,27.05,27.96,21.44,0,111.3,13.09,27.90,130.7
"2010-06-30 00:01:00",245262,9.95,170.4,7.476,0.752,23.5,110.8387,27.05,27.95,21.41,0,111.3,13.09,27.90,132.4
"2010-06-30 00:01:30",245263,9.86,176.2,9.55,1.058,23.49,110.838,27.05,27.95,21.38,0,111.3,13.09,27.89,138.2
"2010-06-30 00:02:00",245264,9.11,180.7,5.418,0.432,23.43,110.8318,27.03,27.95,20.94,0,111.3,13.09,27.88,142.7
"2010-06-30 00:02:30",245265,10.27,177.8,2.687,0.492,23.36,110.8312,27.03,27.92,20.66,0,111.3,13.09,27.88,139.8
"2010-06-30 00:03:00",245266,9.97,183.7,4.266,0.464,23.51,110.8321,27.03,27.92,20.74,0,111.3,13.09,27.88,145.7
"2010-06-30 00:03:30",245267,9.75,180.6,4.1,0.545,23.52,110.8312,27.03,27.91,21.09,0,111.3,13.09,27.88,142.6
"2010-06-30 00:04:00",245268,9.79,181,1.569,0.339,23.4,110.8321,27.03,27.92,20.82,0,111.3,13.09,27.88,143.0
"2010-06-30 00:04:30",245269,10.1,182,2.548,0.446,23.46,110.8324,27.03,27.93,20.62,0,111.3,13.09,27.88,144.0
"2010-06-30 00:05:00",245270,10.38,184.8,2.98,0.578,23.59,110.8324,27.03,27.91,20.82,0,111.3,13.09,27.88,146.8
"2010-06-30 00:05:30",245271,10.55,184,2.75,0.406,23.51,110.8321,27.03,27.93,20.7,0,111.3,13.09,27.88,146.0
"2010-06-30 00:06:00",245272,10.52,178.5,1.45,0.191,23.43,110.831,27.03,27.91,20.4,0,111.3,13.09,27.88,140.5
"2010-06-30 00:06:30",245273,10.75,179.8,2.509,0.303,23.46,110.8319,27.03,27.91,20.26,0,111.3,13.09,27.88,141.8
"2010-06-30 00:07:00",245274,10.91,177.7,2.775,0.254,23.49,110.8313,27.03,27.91,20.32,0,111.3,13.09,27.88,139.7
"2010-06-30 00:07:30",245275,10.55,182,2.188,0.331,23.54,110.8285,27.02,27.9,20.4,0,111.3,13.09,27.87,144.0
"2010-06-30 00:08:00",245276,10.24,183.4,2.876,0.319,23.57,110.822,27.01,27.91,20.52,0,111.3,13.09,27.85,145.4
"2010-06-30 00:08:30",245277,10.32,180.6,1.17,0.22,23.53,110.8103,26.98,27.89,20.57,0,111.3,13.09,27.82,142.6
"2010-06-30 00:09:00",245278,10.42,181,0.894,0.2,23.54,110.8063,26.97,27.89,20.66,0,111.3,13.09,27.81,143.0
"2010-06-30 00:09:30",245279,10.4,178.1,2.371,0.335,23.47,110.8034,26.96,27.9,20.76,0,111.3,13.09,27.81,140.1
"2010-06-30 00:10:00",245280,10.57,179.9,1.236,0.365,23.51,110.8009,26.95,27.89,20.69,0,111.3,13.09,27.80,141.9
"2010-06-30 00:10:30",245281,10.27,177,1.888,0.318,23.52,110.8028,26.96,27.88,20.7,0,111.3,13.09,27.80,139.0
"2010-06-30 00:11:00",245282,10.99,179.4,2.586,0.247,23.56,110.804,26.96,27.86,20.43,0,111.3,13.1,27.81,141.4
"2010-06-30 00:11:30",245283,10.85,176.8,0.979,0.286,23.56,110.8053,26.96,27.86,20.32,0,111.3,13.1,27.81,138.8
"2010-06-30 00:12:00",245284,10.63,178.4,2.204,0.473,23.62,110.8042,26.96,27.85,20.35,0,111.3,13.1,27.81,140.4
"2010-06-30 00:12:30",245285,10.45,176.8,1.048,0.127,23.54,110.7995,26.95,27.86,20.33,0,111.3,13.1,27.80,138.8
"2010-06-30 00:13:00",245286,10.52,176.6,0.83,0.201,23.57,110.7929,26.93,27.84,20.36,0,111.3,13.1,27.78,138.6
"2010-06-30 00:13:30",245287,10.16,177.9,1.103,0.181,23.52,110.7851,26.91,27.85,20.4,0,111.3,13.1,27.76,139.9
"2010-06-30 00:14:00",245288,9.69,177.4,2.626,0.184,23.59,110.7811,26.9,27.84,20.45,0,111.3,13.1,27.75,139.4
"2010-06-30 00:14:30",245289,9.92,181.8,0.759,0.183,23.58,110.7753,26.89,27.83,20.27,0,111.3,13.09,27.73,143.8
"2010-06-30 00:15:00",245290,9.53,182.9,0.925,0.152,23.55,110.7744,26.88,27.82,20.58,0,111.3,13.1,27.73,144.9
"2010-06-30 00:15:30",245291,9.69,185.1,2.245,0.17,23.63,110.7741,26.88,27.79,20.84,0,111.3,13.1,27.73,147.1
"2010-06-30 00:16:00",245292,9.84,184.8,2.459,0.215,23.63,110.7651,26.86,27.79,20.65,0,111.3,13.1,27.71,146.8
"2010-06-30 00:16:30",245293,9.5,186.5,2.465,0.387,23.68,110.757,26.84,27.78,20.42,0,111.3,13.1,27.69,148.5
"2010-06-30 00:17:00",245294,9.42,187.8,1.349,0.193,23.73,110.7536,26.83,27.76,20.39,0,111.3,13.1,27.68,149.8
"2010-06-30 00:17:30",245295,9.12,185.9,1.81,0.179,23.67,110.7492,26.82,27.77,20.23,0,111.3,13.1,27.67,147.9
"2010-06-30 00:18:00",245296,9.11,184.9,2.699,0.315,23.59,110.7483,26.82,27.75,20.31,0,111.3,13.1,27.66,146.9
"2010-06-30 00:18:30",245297,8.99,184.2,1.589,0.233,23.6,110.7461,26.81,27.74,20.44,0,111.3,13.1,27.66,146.2
"2010-06-30 00:19:00",245298,9.29,184.4,2.1,0.299,23.58,110.7421,26.8,27.73,20.66,0,111.3,13.1,27.65,146.4
"2010-06-30 00:19:30",245299,8.71,188.7,4.19,0.494,23.58,110.741,26.8,27.73,20.99,0,111.3,13.1,27.64,150.7
"2010-06-30 00:20:00",245300,9.59,188.4,2.267,0.444,23.65,110.7407,26.8,27.71,20.73,0,111.3,13.1,27.64,150.4
"2010-06-30 00:20:30",245301,9.7,182.6,1.089,0.523,23.53,110.7407,26.8,27.71,20.59,0,111.3,13.09,27.64,144.6
"2010-06-30 00:21:00",245302,9.77,182.6,0.787,0.16,23.57,110.7405,26.8,27.71,20.08,0,111.3,13.09,27.64,144.6
"2010-06-30 00:21:30",245303,9.73,181.2,1.144,0.178,23.56,110.7405,26.8,27.71,20.08,0,111.3,13.09,27.64,143.2
"2010-06-30 00:22:00",245304,9.08,185.6,2.633,0.39,23.63,110.7405,26.8,27.7,20.57,0,111.3,13.09,27.64,147.6
"2010-06-30 00:22:30",245305,8.9,185.5,2.967,0.505,23.64,110.7396,26.8,27.69,20.43,0,111.3,13.09,27.64,147.5
"2010-06-30 00:23:00",245306,9.41,185.7,2.058,0.328,23.67,110.7396,26.8,27.7,20.21,0,111.3,13.09,27.64,147.7
"2010-06-30 00:23:30",245307,9.88,182.5,2.638,0.311,23.56,110.7399,26.8,27.69,20.35,0,111.3,13.09,27.64,144.5
"2010-06-30 00:24:00",245308,10.12,185.4,3.236,0.258,23.65,110.7351,26.78,27.69,20.23,0,111.3,13.09,27.63,147.4
"2010-06-30 00:24:30",245309,10.07,181.4,2.427,0.358,23.51,110.7239,26.76,27.69,20.38,0,111.3,13.09,27.60,143.4
"2010-06-30 00:25:00",245310,10.27,185,2.149,0.352,23.6,110.7155,26.73,27.67,19.84,0,111.3,13.09,27.58,147.0
"2010-06-30 00:25:30",245311,9.89,186.6,1.093,0.312,23.65,110.7144,26.73,27.68,19.88,0,111.3,13.09,27.58,148.6
"2010-06-30 00:26:00",245312,9.97,184.7,1.811,0.186,23.59,110.7088,26.72,27.67,19.92,0,111.3,13.09,27.56,146.7
"2010-06-30 00:26:30",245313,9.75,183.2,0.774,0.377,23.58,110.7086,26.72,27.67,19.67,0,111.3,13.1,27.56,145.2
"2010-06-30 00:27:00",245314,9.36,181.5,1.695,0.316,23.52,110.7086,26.72,27.66,19.99,0,111.3,13.1,27.56,143.5
"2010-06-30 00:27:30",245315,10.31,182.8,2.127,0.252,23.56,110.7127,26.73,27.65,19.91,0,111.3,13.1,27.57,144.8
"2010-06-30 00:28:00",245316,10.18,187,1.88,0.236,23.75,110.7164,26.74,27.65,19.58,0,111.3,13.1,27.58,149.0
"2010-06-30 00:28:30",245317,9.65,185.5,1.848,0.239,23.61,110.7145,26.73,27.64,19.72,0,111.3,13.1,27.58,147.5
"2010-06-30 00:29:00",245318,9.83,181.9,0.917,0.217,23.51,110.7145,26.73,27.64,19.78,0,111.3,13.1,27.58,143.9
"2010-06-30 00:29:30",245319,10.12,182.8,1.25,0.285,23.53,110.7205,26.75,27.64,19.92,0,111.3,13.1,27.59,144.8
"2010-06-30 00:30:00",245320,10.63,181.1,1.745,0.283,23.52,110.7199,26.74,27.64,19.98,0,111.3,13.1,27.59,143.1
"2010-06-30 00:30:30",245321,10.42,185.3,2.474,0.367,23.58,110.7176,26.74,27.63,19.64,0,111.3,13.1,27.58,147.3
"2010-06-30 00:31:00",245322,9.79,184.9,2.373,0.4,23.55,110.7063,26.71,27.62,19.61,0,111.3,13.1,27.55,146.9
"2010-06-30 00:31:30",245323,9.92,185.7,3.275,0.351,23.53,110.706,26.71,27.62,19.85,0,111.3,13.1,27.55,147.7
"2010-06-30 00:32:00",245324,10.62,192.1,1.555,0.177,23.56,110.7045,26.71,27.6,19.53,0,111.3,13.1,27.55,154.1
"2010-06-30 00:32:30",245325,10.39,193.2,1.626,0.358,23.53,110.7038,26.7,27.61,19.51,0,111.3,13.1,27.55,155.2
"2010-06-30 00:33:00",245326,9.43,188.7,6.514,0.335,23.48,110.7029,26.7,27.61,19.91,0,111.2,13.1,27.55,150.7
"2010-06-30 00:33:30",245327,9.63,182.8,2.266,0.339,23.41,110.7004,26.69,27.6,20.16,0,111.3,13.1,27.54,144.8
"2010-06-30 00:34:00",245328,9.61,184.8,1.828,0.27,23.47,110.6992,26.69,27.59,20.11,0,111.3,13.1,27.54,146.8
"2010-06-30 00:34:30",245329,8.93,184.1,3.123,0.761,23.36,110.7004,26.69,27.58,20.23,0,111.2,13.1,27.54,146.1
"2010-06-30 00:35:00",245330,9.69,190.5,4.022,0.632,23.47,110.6996,26.69,27.57,20.15,0,111.2,13.1,27.54,152.5
"2010-06-30 00:35:30",245331,8.97,188.7,3.844,0.361,23.42,110.6918,26.67,27.56,20.44,0,111.2,13.1,27.52,150.7
"2010-06-30 00:36:00",245332,9.37,188.5,2.703,0.379,23.47,110.6809,26.64,27.55,19.89,0,111.2,13.1,27.49,150.5
"2010-06-30 00:36:30",245333,9.74,191.1,3.133,0.807,23.47,110.6767,26.63,27.54,20.03,0,111.2,13.1,27.48,153.1
"2010-06-30 00:37:00",245334,9.08,188.1,4.415,0.629,23.43,110.6758,26.63,27.54,19.97,0,111.2,13.1,27.48,150.1
"2010-06-30 00:37:30",245335,8.55,186,4.065,0.256,23.32,110.6716,26.62,27.53,20.69,0,111.2,13.1,27.47,148.0
"2010-06-30 00:38:00",245336,8.12,180.3,4.103,0.561,23.29,110.6674,26.61,27.53,20.81,0,111.2,13.1,27.45,142.3
"2010-06-30 00:38:30",245337,8.77,184,5.488,0.288,23.41,110.6655,26.6,27.49,20.64,0,111.2,13.1,27.45,146.0
"2010-06-30 00:39:00",245338,9.09,187.3,5.123,0.576,23.42,110.6616,26.59,27.48,20.18,0,111.2,13.1,27.44,149.3
"2010-06-30 00:39:30",245339,9.61,182.9,3.732,0.409,23.36,110.657,26.58,27.47,19.97,0,111.2,13.1,27.43,144.9
"2010-06-30 00:40:00",245340,11.28,177.4,1.925,0.213,23.31,110.6517,26.57,27.47,19.26,0,111.2,13.1,27.41,139.4
"2010-06-30 00:40:30",245341,11.65,177.9,1.909,0.378,23.29,110.6519,26.57,27.47,19.48,0,111.2,13.1,27.41,139.9
"2010-06-30 00:41:00",245342,11.85,181.7,2.701,0.367,23.35,110.653,26.57,27.46,19.53,0,111.2,13.1,27.42,143.7
"2010-06-30 00:41:30",245343,11.37,180.8,1.46,0.392,23.34,110.6519,26.57,27.47,19.05,0,111.2,13.1,27.41,142.8
"2010-06-30 00:42:00",245344,11.38,178.8,2.457,0.357,23.36,110.6513,26.57,27.47,19.23,0,111.2,13.1,27.41,140.8
"2010-06-30 00:42:30",245345,11.38,179.1,1.359,0.32,23.39,110.652,26.57,27.47,19.06,0,111.2,13.1,27.41,141.1
"2010-06-30 00:43:00",245346,11.31,180,2.752,0.617,23.4,110.6561,26.58,27.46,19.09,0,111.2,13.1,27.43,142.0
"2010-06-30 00:43:30",245347,11.1,180.5,2.028,0.296,23.38,110.6565,26.58,27.47,19.17,0,111.2,13.1,27.43,142.5
"2010-06-30 00:44:00",245348,12.19,180.2,1.113,0.375,23.36,110.6562,26.58,27.48,18.87,0,111.2,13.1,27.43,142.2
"2010-06-30 00:44:30",245349,11.66,183.2,3.667,0.395,23.44,110.6531,26.57,27.47,18.75,0,111.2,13.1,27.42,145.2
"2010-06-30 00:45:00",245350,11.04,183.7,0.781,0.254,23.46,110.6517,26.57,27.47,19.01,0,111.2,13.1,27.41,145.7
"2010-06-30 00:45:30",245351,10.92,183.4,1.557,0.455,23.43,110.6517,26.57,27.47,18.85,0,111.2,13.1,27.41,145.4
"2010-06-30 00:46:00",245352,11.59,179.7,1.657,0.234,23.38,110.6503,26.57,27.47,18.8,0,111.2,13.1,27.41,141.7
"2010-06-30 00:46:30",245353,11.3,182.6,1.595,0.542,23.39,110.6495,26.56,27.46,19.03,0,111.2,13.1,27.41,144.6
"2010-06-30 00:47:00",245354,11.13,187.7,1.956,0.629,23.54,110.645,26.55,27.46,19.43,0,111.2,13.1,27.40,149.7
"2010-06-30 00:47:30",245355,10.26,190.1,2.731,0.426,23.49,110.6436,26.55,27.45,19.52,0,111.2,13.1,27.39,152.1
"2010-06-30 00:48:00",245356,9.82,182.8,2.404,0.486,23.37,110.6433,26.55,27.44,19.37,0,111.2,13.1,27.39,144.8
"2010-06-30 00:48:30",245357,11.51,181.4,2.291,0.333,23.37,110.643,26.55,27.45,19.08,0,111.2,13.1,27.39,143.4
"2010-06-30 00:49:00",245358,11.41,184.8,1.723,0.448,23.49,110.6411,26.54,27.44,19.26,0,111.2,13.11,27.39,146.8
"2010-06-30 00:49:30",245359,11.42,182.3,1.459,0.3,23.39,110.6343,26.52,27.43,19.31,0,111.2,13.11,27.37,144.3
"2010-06-30 00:50:00",245360,10.71,187,2.486,0.263,23.47,110.6248,26.5,27.42,19.53,0,111.2,13.11,27.34,149.0
"2010-06-30 00:50:30",245361,10.78,188.9,4.354,0.702,23.44,110.6183,26.48,27.42,19.44,0,111.2,13.11,27.33,150.9
"2010-06-30 00:51:00",245362,10.09,187.4,3.173,0.774,23.37,110.6172,26.48,27.39,19.61,0,111.2,13.11,27.33,149.4
"2010-06-30 00:51:30",245363,9.8,186.8,5.068,0.373,23.27,110.6096,26.46,27.4,19.92,0,111.2,13.11,27.31,148.8
"2010-06-30 00:52:00",245364,10.04,188.8,3.547,0.457,23.38,110.6094,26.46,27.38,20.04,0,111.2,13.11,27.30,150.8
"2010-06-30 00:52:30",245365,9.81,183.7,1.9,0.315,23.31,110.6079,26.46,27.37,19.63,0,111.2,13.11,27.30,145.7
"2010-06-30 00:53:00",245366,10.17,179.2,2.741,0.357,23.2,110.5914,26.41,27.36,19.81,0,111.2,13.11,27.26,141.2
"2010-06-30 00:53:30",245367,9.48,181.8,4.232,0.199,23.21,110.5782,26.38,27.34,19.91,0,111.2,13.11,27.22,143.8
"2010-06-30 00:54:00",245368,9.72,191.2,2.385,0.971,23.37,110.5759,26.37,27.33,20.18,0,111.2,13.11,27.22,153.2
"2010-06-30 00:54:30",245369,12.7,192.9,1.48,0.539,23.46,110.5759,26.37,27.32,19.24,0,111.2,13.11,27.22,154.9
"2010-06-30 00:55:00",245370,12.06,192.7,3.513,0.594,23.49,110.5729,26.37,27.29,19.19,0,111.2,13.11,27.21,154.7
"2010-06-30 00:55:30",245371,12.89,188.7,2.151,0.487,23.5,110.5689,26.36,27.29,18.88,0,111.2,13.11,27.20,150.7
"2010-06-30 00:56:00",245372,12.88,189.6,3.839,0.765,23.45,110.5616,26.34,27.28,18.84,0,111.2,13.11,27.18,151.6
"2010-06-30 00:56:30",245373,12.48,189.8,1.858,0.58,23.43,110.5533,26.32,27.27,18.99,0,111.2,13.1,27.16,151.8
"2010-06-30 00:57:00",245374,12.91,191.2,2.32,0.509,23.53,110.5513,26.31,27.27,18.97,0,111.2,13.11,27.16,153.2
"2010-06-30 00:57:30",245375,13.08,192.1,0.91,0.131,23.49,110.5519,26.31,27.26,18.6,0,111.2,13.11,27.16,154.1
"2010-06-30 00:58:00",245376,13.26,190.5,0.795,0.277,23.55,110.5517,26.31,27.24,18.63,0,111.2,13.11,27.16,152.5
"2010-06-30 00:58:30",245377,12.97,191.1,1.214,0.314,23.51,110.5497,26.31,27.25,18.53,0,111.2,13.11,27.15,153.1
"2010-06-30 00:59:00",245378,12.86,191.1,0.881,0.305,23.49,110.5496,26.31,27.23,18.6,0,111.2,13.11,27.15,153.1
"2010-06-30 00:59:30",245379,12.8,190.4,1.598,0.454,23.5,110.5466,26.3,27.24,18.83,0,111.2,13.11,27.14,152.4
"2010-06-30 01:00:00",245380,13.64,190.9,1.295,0.384,23.49,110.5482,26.3,27.23,18.7,0,111.2,13.11,27.15,152.9
"2010-06-30 01:00:30",245381,13.32,189.2,1.644,0.258,23.5,110.5466,26.3,27.24,18.6,0,111.2,13.11,27.14,151.2
"2010-06-30 01:01:00",245382,13.48,191.3,2.499,0.287,23.42,110.5494,26.31,27.23,18.68,0,111.2,13.11,27.15,153.3
"2010-06-30 01:01:30",245383,12.88,190.6,1.222,0.263,23.46,110.5448,26.29,27.22,18.87,0,111.2,13.11,27.14,152.6
"2010-06-30 01:02:00",245384,12.47,193.6,1.847,0.396,23.34,110.5458,26.3,27.2,18.84,0,111.2,13.11,27.14,155.6
"2010-06-30 01:02:30",245385,11.8,195.7,2.535,0.362,23.29,110.5374,26.28,27.2,19.12,0,111.2,13.11,27.12,157.7
"2010-06-30 01:03:00",245386,12.84,194.6,3.614,0.76,23.37,110.5279,26.25,27.2,18.97,0,111.2,13.12,27.09,156.6
"2010-06-30 01:03:30",245387,13.72,192.6,0.725,0.448,23.47,110.5278,26.25,27.18,18.46,0,111.2,13.12,27.09,154.6
"2010-06-30 01:04:00",245388,13.62,193.7,1.038,0.285,23.44,110.5291,26.25,27.17,18.62,0,111.2,13.12,27.10,155.7
"2010-06-30 01:04:30",245389,13.03,193,0.868,0.252,23.43,110.5322,26.26,27.16,18.58,0,111.2,13.12,27.11,155.0
"2010-06-30 01:05:00",245390,13.33,193.6,0.914,0.209,23.36,110.5303,26.26,27.16,18.55,0,111.2,13.12,27.10,155.6
"2010-06-30 01:05:30",245391,13.84,194.3,0.91,0.306,23.35,110.5337,26.27,27.15,18.51,0,111.2,13.12,27.11,156.3
"2010-06-30 01:06:00",245392,13.35,192.4,2.455,0.336,23.38,110.5347,26.27,27.14,18.7,0,111.2,13.12,27.11,154.4
"2010-06-30 01:06:30",245393,13.1,193.9,1.401,0.224,23.34,110.5308,26.26,27.13,18.61,0,111.2,13.12,27.10,155.9
"2010-06-30 01:07:00",245394,13.3,192.9,1.197,0.17,23.39,110.5261,26.25,27.15,18.57,0,111.2,13.12,27.09,154.9
"2010-06-30 01:07:30",245395,13.53,193.7,0.812,0.128,23.33,110.518,26.23,27.12,18.37,0,111.2,13.12,27.07,155.7
"2010-06-30 01:08:00",245396,13.9,193.8,0.659,0.223,23.32,110.5126,26.21,27.12,18.1,0,111.2,13.12,27.06,155.8
"2010-06-30 01:08:30",245397,13.67,194.6,0.773,0.188,23.29,110.5112,26.21,27.11,18.09,0,111.2,13.12,27.05,156.6
"2010-06-30 01:09:00",245398,13.85,195.4,1.472,0.447,23.26,110.5101,26.21,27.11,18.16,0,111.2,13.12,27.05,157.4
"2010-06-30 01:09:30",245399,13.34,196.1,1.113,0.26,23.29,110.5067,26.2,27.1,18.04,0,111.2,13.12,27.04,158.1
"2010-06-30 01:10:00",245400,13.76,195.3,1.12,0.218,23.28,110.5043,26.19,27.11,18.11,0,111.2,13.12,27.03,157.3
"2010-06-30 01:10:30",245401,13.29,192.7,1.467,0.315,23.33,110.5031,26.19,27.09,18.32,0,111.2,13.12,27.03,154.7
"2010-06-30 01:11:00",245402,12.6,193.7,2.05,0.313,23.28,110.5028,26.19,27.1,18.41,0,111.2,13.12,27.03,155.7
"2010-06-30 01:11:30",245403,13.19,195.6,1.779,0.288,23.25,110.5034,26.19,27.09,18.47,0,111.2,13.12,27.03,157.6
"2010-06-30 01:12:00",245404,13.35,193.7,1.756,0.33,23.32,110.5041,26.19,27.08,18.48,0,111.2,13.11,27.03,155.7
"2010-06-30 01:12:30",245405,13.26,190.4,1.435,0.185,23.39,110.5075,26.2,27.08,18.42,0,111.2,13.11,27.04,152.4
"2010-06-30 01:13:00",245406,13.5,192.8,1.88,0.245,23.35,110.5078,26.2,27.07,18.43,0,111.2,13.11,27.04,154.8
"2010-06-30 01:13:30",245407,13.34,193.6,1.372,0.298,23.3,110.5025,26.19,27.07,18.43,0,111.2,13.11,27.03,155.6
"2010-06-30 01:14:00",245408,12.6,192.7,2.043,0.478,23.28,110.4914,26.16,27.06,18.53,0,111.2,13.11,27.00,154.7
"2010-06-30 01:14:30",245409,11.82,193,1.492,0.448,23.28,110.4853,26.14,27.07,18.57,0,111.2,13.11,26.98,155.0
"2010-06-30 01:15:00",245410,11.52,197.2,1.672,0.312,23.16,110.4833,26.14,27.04,18.88,0,111.2,13.11,26.98,159.2
"2010-06-30 01:15:30",245411,12.73,195.4,1.765,0.454,23.15,110.4787,26.12,27.04,18.98,0,111.2,13.11,26.97,157.4
"2010-06-30 01:16:00",245412,13.29,192.2,0.579,0.137,23.29,110.4781,26.12,27.04,17.91,0,111.2,13.11,26.97,154.2
"2010-06-30 01:16:30",245413,13.11,191.9,0.739,0.152,23.29,110.4784,26.12,27.03,17.99,0,111.2,13.11,26.97,153.9
"2010-06-30 01:17:00",245414,13.31,190.7,1.251,0.247,23.31,110.4784,26.12,27.01,18.3,0,111.2,13.11,26.97,152.7
"2010-06-30 01:17:30",245415,12.99,192.5,2.268,0.498,23.23,110.4782,26.12,27.02,18.34,0,111.2,13.12,26.97,154.5
"2010-06-30 01:18:00",245416,12.1,193.5,2.897,0.441,23.18,110.4714,26.11,27.01,18.66,0,111.2,13.12,26.95,155.5
"2010-06-30 01:18:30",245417,11.45,198.3,2.528,0.476,23.03,110.4557,26.07,26.99,18.9,0,111.2,13.12,26.91,160.3
"2010-06-30 01:19:00",245418,12.25,196.8,2.72,1.055,23.09,110.4478,26.05,26.99,19.02,0,111.2,13.12,26.89,158.8
"2010-06-30 01:19:30",245419,13.42,196.6,2.623,0.917,23.09,110.4447,26.04,26.98,19,0,111.2,13.12,26.88,158.6
"2010-06-30 01:20:00",245420,13.09,197.5,3.572,0.404,23.13,110.4447,26.04,26.96,18.82,0,111.2,13.12,26.88,159.5
"2010-06-30 01:20:30",245421,13.37,196.8,1.279,0.323,23.09,110.4422,26.03,26.94,18.86,0,111.2,13.12,26.87,158.8
"2010-06-30 01:21:00",245422,12.68,195.7,1.408,0.397,23.14,110.4248,25.99,26.93,19.04,0,111.2,13.12,26.83,157.7
"2010-06-30 01:21:30",245423,11.71,195.7,3.296,0.347,23.05,110.4153,25.96,26.92,19.13,0,111.2,13.12,26.80,157.7
"2010-06-30 01:22:00",245424,11.6,195.5,2.353,0.701,23.11,110.411,25.95,26.91,18.98,0,111.2,13.12,26.79,157.5
"2010-06-30 01:22:30",245425,12.92,193.9,1.638,0.479,23.14,110.411,25.95,26.89,18.91,0,111.2,13.12,26.79,155.9
"2010-06-30 01:23:00",245426,13.69,197,1.455,0.358,23.11,110.411,25.95,26.88,18.52,0,111.2,13.12,26.79,159.0
"2010-06-30 01:23:30",245427,14.08,195,1.448,0.231,23.18,110.411,25.95,26.88,18.5,0,111.2,13.12,26.79,157.0
"2010-06-30 01:24:00",245428,14.21,194.6,0.859,0.242,23.13,110.411,25.95,26.87,18.29,0,111.1,13.12,26.79,156.6
"2010-06-30 01:24:30",245429,13.84,195,0.528,0.383,23.09,110.4108,25.95,26.86,18.17,0,111.2,13.12,26.79,157.0
"2010-06-30 01:25:00",245430,12.94,193.9,1.271,0.44,23.11,110.4099,25.95,26.87,18.31,0,111.1,13.12,26.79,155.9
"2010-06-30 01:25:30",245431,13.4,194.4,1.705,0.222,23.13,110.4094,25.95,26.86,18.2,0,111.2,13.12,26.79,156.4
"2010-06-30 01:26:00",245432,13.54,194.2,1.605,0.284,23.12,110.4085,25.94,26.86,18.32,0,111.2,13.12,26.79,156.2
"2010-06-30 01:26:30",245433,12.7,193.6,2.368,0.323,23.13,110.408,25.94,26.85,18.44,0,111.2,13.12,26.79,155.6
"2010-06-30 01:27:00",245434,11.37,189.7,2.179,0.296,23.14,110.404,25.93,26.83,18.51,0,111.1,13.12,26.78,151.7
"2010-06-30 01:27:30",245435,11.97,191.1,2.394,0.426,23.1,110.3964,25.91,26.85,18.56,0,111.1,13.12,26.76,153.1
"2010-06-30 01:28:00",245436,12.58,191.1,2.008,0.471,23.13,110.3886,25.89,26.83,18.53,0,111.1,13.12,26.74,153.1
"2010-06-30 01:28:30",245437,13.25,192,1.068,0.311,23.18,110.3858,25.89,26.83,18.41,0,111.1,13.12,26.73,154.0
"2010-06-30 01:29:00",245438,12.57,192,1.23,0.277,23.1,110.3858,25.89,26.83,18.63,0,111.1,13.12,26.73,154.0
"2010-06-30 01:29:30",245439,12.32,188.9,1.799,0.241,23.12,110.3824,25.88,26.83,18.64,0,111.1,13.12,26.72,150.9
"2010-06-30 01:30:00",245440,12.36,191.1,2.989,0.341,23.09,110.3773,25.86,26.82,18.81,0,111.1,13.12,26.71,153.1
"2010-06-30 01:30:30",245441,12.43,187.1,1.816,0.498,23.16,110.3773,25.86,26.82,18.45,0,111.1,13.12,26.71,149.1
"2010-06-30 01:31:00",245442,12.44,185.2,3.304,0.739,23.04,110.3773,25.86,26.82,18.39,0,111.1,13.12,26.71,147.2
"2010-06-30 01:31:30",245443,11.48,191.4,2.497,0.517,23.09,110.3777,25.87,26.81,18.5,0,111.2,13.12,26.71,153.4
"2010-06-30 01:32:00",245444,11.17,191.5,2.142,0.41,23.08,110.3748,25.86,26.79,18.78,0,111.2,13.12,26.70,153.5
"2010-06-30 01:32:30",245445,12.09,191.3,1.595,0.664,23.13,110.3726,25.85,26.79,18.48,0,111.2,13.12,26.69,153.3
"2010-06-30 01:33:00",245446,12.82,190,2.4,0.347,23.16,110.3665,25.84,26.79,18.1,0,111.2,13.12,26.68,152.0
"2010-06-30 01:33:30",245447,13.23,188.4,3.112,0.317,23.16,110.3635,25.83,26.77,18.06,0,111.1,13.12,26.67,150.4
"2010-06-30 01:34:00",245448,13.19,190.5,1.508,0.428,23.14,110.3579,25.81,26.76,18.21,0,111.2,13.12,26.66,152.5
"2010-06-30 01:34:30",245449,12.64,189.2,3.027,0.459,23.06,110.3543,25.81,26.75,18.48,0,111.2,13.13,26.65,151.2
"2010-06-30 01:35:00",245450,11.85,191.1,1.594,0.757,23.01,110.3501,25.79,26.74,18.66,0,111.2,13.13,26.64,153.1
"2010-06-30 01:35:30",245451,12.39,186.7,1.836,0.312,23.14,110.3461,25.78,26.74,18.18,0,111.2,13.13,26.63,148.7
"2010-06-30 01:36:00",245452,11.9,190.7,3.542,0.351,23.04,110.3492,25.79,26.74,18.34,0,111.2,13.13,26.63,152.7
"2010-06-30 01:36:30",245453,11.96,188.2,2.487,0.361,23.08,110.3551,25.81,26.72,18.36,0,111.1,13.13,26.65,150.2
"2010-06-30 01:37:00",245454,13.31,186.1,1.301,0.73,23.09,110.3495,25.79,26.73,18.43,0,111.1,13.13,26.63,148.1
"2010-06-30 01:37:30",245455,13.6,187.6,0.768,0.276,23.19,110.3373,25.76,26.72,18.16,0,111.2,13.13,26.60,149.6
"2010-06-30 01:38:00",245456,13.28,186.5,1.257,0.199,23.16,110.3365,25.76,26.69,18.22,0,111.1,13.13,26.60,148.5
"2010-06-30 01:38:30",245457,13.17,188.9,1.175,0.386,23.16,110.3373,25.76,26.71,18.42,0,111.1,13.13,26.60,150.9
"2010-06-30 01:39:00",245458,13.04,190.5,1.769,0.283,23.08,110.3362,25.76,26.7,18.35,0,111.1,13.13,26.60,152.5
"2010-06-30 01:39:30",245459,13.14,188.3,2.087,0.416,23.11,110.3323,25.75,26.68,18.4,0,111.2,13.13,26.59,150.3
"2010-06-30 01:40:00",245460,13.13,187.7,1.437,0.307,23.14,110.3332,25.75,26.68,18.36,0,111.2,13.13,26.59,149.7
"2010-06-30 01:40:30",245461,13.52,189.9,1.397,0.358,23.11,110.3357,25.76,26.65,18.38,0,111.2,13.13,26.60,151.9
"2010-06-30 01:41:00",245462,13.49,188.7,1.184,0.437,23.11,110.3363,25.76,26.64,18.22,0,111.2,13.13,26.60,150.7
"2010-06-30 01:41:30",245463,12.74,189.5,1.531,0.385,23.03,110.3372,25.76,26.65,18.51,0,111.2,13.13,26.60,151.5
"2010-06-30 01:42:00",245464,13.22,186.6,1.84,0.377,23.01,110.3344,25.75,26.64,18.41,0,111.2,13.13,26.60,148.6
"2010-06-30 01:42:30",245465,12.65,189.1,1.128,0.216,23.07,110.3165,25.71,26.64,18.57,0,111.2,13.13,26.55,151.1
"2010-06-30 01:43:00",245466,13.04,188.7,2.183,0.35,23.09,110.31,25.69,26.61,18.39,0,111.2,13.13,26.53,150.7
"2010-06-30 01:43:30",245467,12.81,189.7,2.463,0.55,23.02,110.3044,25.68,26.6,18.55,0,111.2,13.13,26.52,151.7
"2010-06-30 01:44:00",245468,13.02,190.4,2.09,0.634,23.04,110.3042,25.68,26.61,18.6,0,111.2,13.13,26.52,152.4
"2010-06-30 01:44:30",245469,13.54,189.9,2.224,0.767,23.09,110.3042,25.68,26.59,18.29,0,111.1,13.13,26.52,151.9
"2010-06-30 01:45:00",245470,14.57,188.3,1.303,0.352,23.15,110.3042,25.68,26.59,18.19,0,111.1,13.13,26.52,150.3
"2010-06-30 01:45:30",245471,14.67,189.5,1.658,0.268,23.1,110.3042,25.68,26.57,18.2,0,111.2,13.13,26.52,151.5
"2010-06-30 01:46:00",245472,15.09,189.8,1.046,0.283,23.18,110.3042,25.68,26.57,18.16,0,111.2,13.13,26.52,151.8
"2010-06-30 01:46:30",245473,14.48,187.9,0.933,0.207,23.17,110.3057,25.68,26.57,18.12,0,111.1,13.13,26.52,149.9
"2010-06-30 01:47:00",245474,14.47,189.9,1.206,0.28,23.13,110.3051,25.68,26.57,18.24,0,111.2,13.13,26.52,151.9
"2010-06-30 01:47:30",245475,14.26,189.2,1.487,0.334,23.12,110.3034,25.67,26.56,18.25,0,111.1,13.13,26.52,151.2
"2010-06-30 01:48:00",245476,14.37,188.2,1.625,0.415,23.13,110.304,25.68,26.55,18.32,0,111.1,13.13,26.52,150.2